NY5V Weather Reports


Display with metric or nautical units.
time (UTC)temp
F
wind
direction
speed
MPH
gust
MPH
rain 1hr
in
rain 24hr
in
rain mn
in
humidity
%
barometer
mb
20260506212459 61 118 3.0 4.0 0.00 0.00 0.00 92 1012.3
20260506211456 61 96 2.0 3.0 0.00 0.00 0.00 91 1012.3
20260506210456 62 102 2.0 3.0 0.00 0.00 0.00 91 1012.1
20260506205455 62 82 1.0 2.0 0.00 0.00 0.00 91 1012.1
20260506204455 62 87 2.0 3.0 0.00 0.00 0.00 90 1012.1
20260506203456 62 86 3.0 3.0 0.00 0.00 0.00 90 1011.8
20260506202456 62 79 1.0 2.0 0.00 0.00 0.00 89 1011.8
20260506201455 62 76 1.0 1.0 0.00 0.00 0.00 90 1012.2
20260506200454 61 94 3.0 3.0 0.00 0.00 0.00 91 1012.5
20260506195454 61 69 1.0 1.0 0.00 0.00 0.00 91 1012.5
20260506194453 61 65 1.0 1.0 0.00 0.00 0.00 91 1012.6
20260506193454 60 79 2.0 2.0 0.00 0.00 0.00 91 1012.6
20260506192453 60 95 2.0 2.0 0.00 0.00 0.00 92 1012.6
20260506191452 59 73 2.0 2.0 0.00 0.00 0.00 92 1012.4
20260506190451 59 93 2.0 3.0 0.00 0.00 0.00 92 1012.1
20260506185451 59 127 4.0 4.0 0.00 0.00 0.00 91 1012.0
20260506184451 59 126 4.0 6.0 0.00 0.00 0.00 91 1011.8
20260506183449 59 104 2.0 3.0 0.00 0.00 0.00 91 1011.4
20260506182450 59 97 1.0 2.0 0.00 0.00 0.00 91 1011.6
20260506181445 60 122 3.0 3.0 0.00 0.00 0.00 90 1011.7
20260506180444 60 88 2.0 3.0 0.00 0.00 0.00 89 1013.0
20260506175443 60 77 2.0 2.0 0.00 0.00 0.00 89 1013.0
20260506174438 60 84 2.0 2.0 0.00 0.00 0.00 89 1013.4
20260506173438 60 61 1.0 1.0 0.00 0.00 0.00 89 1012.6
20260506172437 59 52 1.0 1.0 0.00 0.00 0.00 90 1013.1
20260506171437 58 79 1.0 2.0 0.00 0.00 0.00 91 1013.7
20260506170437 57 82 2.0 2.0 0.00 0.00 0.00 92 1014.1
20260506165434 57 102 2.0 2.0 0.00 0.00 0.00 93 1014.4
20260506164432 57 67 2.0 3.0 0.00 0.00 0.00 93 1015.1
20260506163431 57 100 2.0 2.0 0.00 0.00 0.00 93 1015.3
20260506162430 57 80 2.0 2.0 0.00 0.00 0.00 92 1014.9
20260506161425 58 72 2.0 2.0 0.00 0.00 0.00 91 1014.8
20260506160425 58 98 2.0 3.0 0.00 0.00 0.00 91 1014.2
20260506155420 58 90 2.0 2.0 0.00 0.00 0.00 91 1014.0
20260506153542 58 97 2.0 3.0 0.00 0.00 0.00 91 1013.3
20260506152542 58 72 1.0 2.0 0.00 0.00 0.00 91 1013.0
20260506151538 59 70 1.0 1.0 0.00 0.00 0.00 91 1012.6
20260506150537 59 87 2.0 2.0 0.00 0.00 0.00 90 1013.1
20260506145536 59 94 1.0 2.0 0.00 0.00 0.00 91 1013.1
20260506144536 59 89 2.0 3.0 0.00 0.00 0.00 90 1012.9
20260506143531 59 107 3.0 3.0 0.00 0.00 0.00 91 1012.4
20260506142526 58 113 4.0 4.0 0.00 0.00 0.00 91 1012.3
20260506141522 59 86 2.0 2.0 0.00 0.00 0.00 91 1012.2
20260506140517 58 110 3.0 4.0 0.00 0.00 0.00 92 1012.4
20260506135517 58 82 1.0 2.0 0.00 0.00 0.00 92 1012.0
20260506134515 59 77 4.0 6.0 0.00 0.00 0.00 92 1011.8
20260506133515 59 114 4.0 4.0 0.00 0.00 0.00 93 1011.8
20260506132514 59 74 3.0 3.0 0.00 0.00 0.00 93 1011.9
20260506131515 60 98 2.0 3.0 0.00 0.00 0.00 93 1012.0
20260506130514 60 108 2.0 3.0 0.00 0.00 0.00 93 1011.6
20260506125509 60 144 3.0 3.0 0.00 0.00 0.00 93 1011.5
20260506124504 61 88 2.0 3.0 0.00 0.00 0.00 94 1011.3
20260506123500 62 69 1.0 2.0 0.00 0.00 0.00 93 1011.2
20260506122500 62 105 2.0 3.0 0.00 0.00 0.00 93 1010.9
20260506121455 62 77 2.0 2.0 0.00 0.00 0.00 92 1010.9
20260506120455 63 67 1.0 2.0 0.00 0.00 0.00 93 1010.5
20260506115450 63 62 1.0 1.0 0.00 0.00 0.00 92 1010.4
20260506114446 64 56 0.0 1.0 0.00 0.00 0.00 91 1010.3
20260506113442 65 69 1.0 2.0 0.00 0.00 0.00 88 1010.0
20260506112441 66 69 1.0 2.0 0.00 0.00 0.00 88 1010.2
20260506111436 67 79 2.0 3.0 0.00 0.00 0.00 86 1009.7
20260506110431 68 58 1.0 1.0 0.00 0.00 0.00 86 1009.6
20260506105430 68 64 1.0 1.0 0.00 0.00 0.00 86 1009.5
20260506104425 68 51 0.0 0.0 0.00 0.00 0.00 86 1009.4
20260506103420 68 50 0.0 0.0 0.00 0.00 0.00 86 1009.3
20260506102415 69 62 1.0 1.0 0.00 0.00 0.00 86 1009.0
20260506101414 71 63 2.0 2.0 0.00 0.00 0.00 84 1009.1
20260506100410 75 44 0.0 0.0 0.00 0.00 0.00 92 1008.8
20260506095406 75 45 0.0 0.0 0.00 0.00 0.00 93 1008.7
20260506094400 75 343 3.0 4.0 0.00 0.00 0.00 93 1008.5
20260506093355 75 31 1.0 2.0 0.00 0.00 0.00 92 1008.6
20260506092351 75 23 1.0 3.0 0.00 0.00 0.00 93 1008.8
20260506091345 75 13 4.0 6.0 0.00 0.00 0.00 93 1008.5
20260506090345 75 32 1.0 1.0 0.00 0.00 0.00 93 1008.5
20260506085344 75 38 2.0 3.0 0.00 0.00 0.00 93 1008.6
20260506084343 75 40 0.0 0.0 0.00 0.00 0.00 93 1008.5
20260506083343 75 35 1.0 2.0 0.00 0.00 0.00 93 1008.4
20260506082343 75 47 1.0 1.0 0.00 0.00 0.00 93 1008.2
20260506081343 75 17 1.0 3.0 0.00 0.00 0.00 93 1008.5
20260506080343 75 46 1.0 2.0 0.00 0.00 0.00 93 1008.3
20260506073333 75 28 1.0 1.0 0.00 0.00 0.00 93 1008.4
20260506072333 75 35 1.0 1.0 0.00 0.00 0.00 92 1008.9
20260506071329 75 44 0.0 0.0 0.00 0.00 0.00 91 1008.4
20260506070328 75 48 0.0 0.0 0.00 0.00 0.00 91 1008.6
20260506062311 75 46 1.0 1.0 0.00 0.00 0.00 90 1008.6
20260506061310 75 45 0.0 1.0 0.00 0.00 0.00 90 1008.3
20260506060306 76 42 0.0 0.0 0.00 0.00 0.00 90 1008.6
20260506051255 76 328 2.0 3.0 0.00 0.00 0.00 88 1008.5
20260506050250 76 46 2.0 3.0 0.00 0.00 0.00 88 1008.2
20260506044250 77 35 3.0 4.0 0.00 0.00 0.00 88 1008.3
20260506043244 77 32 2.0 2.0 0.00 0.00 0.00 87 1008.3
20260506042241 77 45 0.0 1.0 0.00 0.00 0.00 87 1008.4
20260506041241 77 16 3.0 4.0 0.00 0.00 0.00 87 1007.9
20260506040236 77 17 0.0 1.0 0.00 0.00 0.00 87 1007.6
20260506035235 77 4 2.0 2.0 0.00 0.00 0.00 87 1007.6
20260506034235 77 357 3.0 4.0 0.00 0.00 0.00 86 1007.2
20260506033230 77 34 2.0 3.0 0.00 0.00 0.00 86 1007.4
20260506032229 77 27 0.0 0.0 0.00 0.00 0.00 86 1007.1
20260506031229 78 29 1.0 1.0 0.00 0.00 0.00 86 1007.2
20260506030224 78 42 0.0 0.0 0.00 0.00 0.00 86 1007.0
20260506025223 78 44 0.0 1.0 0.00 0.00 0.00 85 1007.0
20260506024223 78 37 0.0 0.0 0.00 0.00 0.00 85 1007.0
20260506023222 78 338 3.0 3.0 0.00 0.00 0.00 85 1006.7
20260506022217 78 44 0.0 0.0 0.00 0.00 0.00 85 1006.5
20260506021217 78 44 0.0 0.0 0.00 0.00 0.00 84 1006.9
20260506020212 79 42 0.0 0.0 0.00 0.00 0.00 84 1006.8
20260506015213 79 43 0.0 0.0 0.00 0.00 0.00 83 1006.5
20260506014211 79 34 1.0 1.0 0.00 0.00 0.00 83 1006.5
20260506013206 80 42 0.0 0.0 0.00 0.00 0.00 82 1006.5
20260506012205 80 44 0.0 0.0 0.00 0.00 0.00 82 1006.4
20260506011204 80 45 0.0 1.0 0.00 0.00 0.00 81 1006.3
20260506010159 80 37 1.0 1.0 0.00 0.00 0.00 81 1006.1
20260506005159 81 33 0.0 0.0 0.00 0.00 0.00 80 1006.2
20260506004159 81 43 1.0 1.0 0.00 0.00 0.00 79 1005.4
20260506003156 81 347 1.0 2.0 0.00 0.00 0.00 79 1005.7
20260506002154 81 36 1.0 1.0 0.00 0.00 0.00 78 1005.5
20260506001154 82 40 0.0 1.0 0.00 0.00 0.00 77 1005.7
20260506000148 82 26 1.0 1.0 0.00 0.00 0.00 77 1005.5
20260505235149 82 256 6.0 9.0 0.00 0.00 0.00 76 1005.5
20260505234148 82 43 1.0 2.0 0.00 0.00 0.00 76 1005.3
20260505233148 82 40 1.0 1.0 0.00 0.00 0.00 76 1005.4
20260505232143 83 52 2.0 3.0 0.00 0.00 0.00 75 1005.4
20260505231139 83 44 2.0 2.0 0.00 0.00 0.00 75 1005.4
20260505230138 83 305 4.0 4.0 0.00 0.00 0.00 74 1005.3
20260505225137 83 40 1.0 1.0 0.00 0.00 0.00 74 1005.0
20260505224137 83 38 1.0 2.0 0.00 0.00 0.00 74 1005.1
20260505223136 83 49 0.0 1.0 0.00 0.00 0.00 75 1005.1
20260505222134 83 315 3.0 4.0 0.00 0.00 0.00 73 1004.8
20260505221134 84 6 1.0 3.0 0.00 0.00 0.00 74 1004.8
20260505220129 83 45 2.0 3.0 0.00 0.00 0.00 73 1005.2
20260505215125 82 270 3.0 4.0 0.00 0.00 0.00 74 1005.4
20260505214119 83 303 6.0 9.0 0.00 0.00 0.00 75 1005.5
20260505213118 82 33 2.0 3.0 0.00 0.00 0.00 76 1005.8